FENGYUN 1C DEB, 37457

Orbit data source: Space-Track

FENGYUN 1C DEB, 37457 is space debris in SSO originally from a launch on Mon, 10 May 1999 UTC launched from the Taiyaun Space Center, China (TSC). Fengyun 1C debris stems from the Chinese weather satellite Fengyun-1C, which was intentionally destroyed by a Chinese anti-satellite missile in 2007. This event dramatically increased the amount of space debris, with thousands of trackable fragments posing hazards to satellites and human spaceflight. The Fengyun 1C debris cloud has become a focal point in discussions about space sustainability and the need for international regulations to prevent the creation of new debris.

Loading next visibility...
Identifier
37457, 1999-025EJB
Orbit
SSO
Country
Flag of CNCN / PRC
Related business
Manufacturer
Unknown
Mission
Spacecraft
Bus & Motor
Unknown
Mass
Unknown
Launch date (UTC)
1999-05-10 (27 years ago)
Launch vehicle
Unknown
Launch site
Taiyaun Space Center, China (TSC)
Object type
Payload
Rocket body
Debris
Shape & HBR
Unknown shape, 1.1 m
Radar Cross Section
Medium (>0.1 m² and <1 m²)

Expand to show TLE details & history
Last TLE update: 5 days ago

TLE from 5 days ago
0 FENGYUN 1C DEB
1 37457U 99025EJB 26252.47266043  .00002372  00000-0  10231-2 0  9993
2 37457  99.0899 334.8355 0059972  21.2653 339.0997 14.24553294639236
Epoch: 2026-09-09T11:20Z
TLE epoch observation values (Epoch: 2026-09-09T11:20:37.861Z)
Latitude
-0.00007°
Longitude
176.15353°
Altitude
772.656 km
Speed
7.489 km/s
True Right ascension
22h 19m 20s
True Declination
0° 00' 00"
Sunlit
Object was in full shadow at epoch
Visualization orbit readout
Latitude
Unknown
Longitude
Unknown
Altitude
Unknown
Speed
Unknown
Apparent Right ascension
Unknown
Apparent Declination
Unknown
Sunlit
N/A
Visualization observer readout
Local Sidereal Time
04:01:23
Azimuth
Unknown
Elevation
Unknown
Doppler factor
Unknown
Orbital elements
Apogee altitude
850.258 km
Perigee altitude
764.074 km
Semi-major axis
7,185.303 km
Eccentricity
0.006
Inclination
99.0899°
RAAN
334.8355°
Arg. of periapsis
21.2653°
True anomaly
338.85281°
Mean anomaly
339.0997°
Eccentric anomaly
338.97643°
Mean motion
3.56349 °/min
Orbital period
101.02 mins
BSTAR
0.0010231
Loading maneuver chart data...
Computing Atmospheric mass density...
Loading historical data...
Loading historical data...
Loading historical data...
Loading historical data...
Loading historical data...
Loading historical data...
Loading historical data...

Documentation

Showing up to 5 results
|